Regional Weather Roundup
Issued by NWS

Home | Current Version | Previous Version | Text Only | Print | Product List | Glossary On
Versions: 1 2 3 4 5 6 7 8 9 10 11 12 13 14 15 16 17 18 19 20 21 22 23 24 25 26 27 28 29 30 31 32 33 34 35 36 37 38 39 40 41 42 43 44 45 46 47 48 49 50
000
ASCA44 KEWX 221720
RWRMX

LATIN AMERICA AND CARIBBEAN REGIONAL WEATHER ROUNDUP
NATIONAL WEATHER SERVICE AUSTIN/SAN ANTONIO TX
1100 AM CST MON DEC 22 2014

NOTE: "FAIR" INDICATED FEW OR NO CLOUDS BELOW 12,000 FEET WITH NO
SIGNIFICANT WEATHER AND/OR OBSTRUCTIONS TO VISIBILITY.

BAJA CALIFORNIA

CITY           SKY/WX    TMP DP  RH WIND       PRES   REMARKS
LORETO         MOSUNNY   70  48  46 CALM      29.99F
LA PAZ         SUNNY     70  55  60 N5        30.02
MEXICALI       SUNNY     61  46  59 CALM      30.04
S.J. DEL CABO  SUNNY     72  54  53 N6        29.98S
TIJUANA        SUNNY     57  46  67 SE5       30.06S

NORTHWESTERN MEXICO

CITY           SKY/WX    TMP DP  RH WIND       PRES   REMARKS
CULIACAN       SUNNY     72  50  46 N7        29.97
DURANGO        MOSUNNY   63   3   9 SW15      30.17F
GUAYMAS        MOSUNNY   66  48  52 CALM      29.94
HERMOSILLO     PTSUNNY   63  45  51 CALM      30.02
CD. JUAREZ     MOSUNNY   57  37  47 W23       29.89
LOS MOCHIS     PTSUNNY   68  55  64 CALM      29.99R
OBREGON        PTSUNNY   68  41  37 SE8       29.94

NORTHEASTERN MEXICO

CITY           SKY/WX    TMP DP  RH WIND       PRES   REMARKS
CHIHUAHUA      PTSUNNY   59  27  29 S5        30.01
MATAMOROS      PTSUNNY   70  64  83 S14       29.83
MONCLOVA       MOSUNNY   72  39  30 CALM      29.80S
MONTERREY      PTSUNNY   70  54  56 W6        29.78F
NUEVO LAREDO   CLOUDY    61  55  82 CALM      29.81
PIEDRAS NEGRAS FOG       54  48  82 CALM      29.81R VSB 1
REYNOSA        CLOUDY    63  59  88 SW10      29.79  FOG
SALTILLO       PTSUNNY   68  43  40 SE9       30.02F
TORREON        MOSUNNY   59  27  29 CALM      30.03F
CD. VICTORIA   MOSUNNY   68  59  73 S15       29.81

WESTERN MEXICO

CITY           SKY/WX    TMP DP  RH WIND       PRES   REMARKS
AGUASCALIENTES SUNNY     57  32  38 SW7       30.23
COLIMA         MOSUNNY   72  61  68 CALM      30.04S
DEL BAJIO      MOSUNNY   63  41  45 N5        30.28S
GUADALAJARA    SUNNY     66  45  45 CALM      30.16
MANZANILLO     MOSUNNY   82  68  61 N6        29.90S
MAZATLAN       MOSUNNY   66  57  72 N8        29.94F
P. VALLARTA    MOSUNNY   77  63  61 CALM      29.93F
URUAPAN        CLOUDY    66  52  59 CALM      30.16F
ZACATECAS      MOSUNNY   63  21  20 W17       30.20F

CENTRAL MEXICO

CITY           SKY/WX    TMP DP  RH WIND       PRES   REMARKS
CUERNAVACA     CLOUDY    72  43  35 CALM      30.12F
MEXICO CITY    CLOUDY    63  37  39 S7        30.26F
MORELIA        PTSUNNY   64  46  52 E5        30.20
POZA RICA      CLOUDY    72  64  78 CALM      29.89F
PUEBLA         CLOUDY    59  41  51 S8        30.26F
QUERETARO      PTSUNNY   63  41  45 W14       30.23F
S. LUIS POTOSI MOSUNNY   66  27  22 CALM      30.15F
TAMPICO        PTSUNNY   75  64  69 S14       29.85F
TOLUCA         CLOUDY    54  37  54 SE3       30.34S

SOUTHERN MEXICO

CITY           SKY/WX    TMP DP  RH WIND       PRES   REMARKS
ACAPULCO       CLOUDY    82  68  61 N5        29.89F
B. DE HUATULCO CLOUDY    82  72  69 CALM      29.92
OAXACA         CLOUDY    70  50  49 E3        30.16F
P. ESCONDIDO   PTSUNNY   81  72  74 SW7       30.00F
VERACRUZ       CLOUDY    77  68  73 S9        29.86F
ZIHUATANEJO    CLOUDY    79  72  78 CALM      29.91F

YUCATAN PENINSULA

CITY           SKY/WX    TMP DP  RH WIND       PRES   REMARKS
CAMPECHE       MOSUNNY   82  73  74 SE7       29.88F
CANCUN         PTSUNNY   81  75  83 SE20      29.94F
CHETUMAL       MOSUNNY   82  73  74 E17       29.90
CD. DEL CARMEN SUNNY     81  70  69 SE12      29.87
COZUMEL        PTSUNNY   77  73  88 SE13      29.94F
MERIDA         PTSUNNY   84  70  61 SE12      29.91F
MINATITLAN     PTSUNNY   81  66  61 CALM      29.83
TAPACHULA      SUNNY     86  72  62 CALM      29.88F HX  92
TUX. GUTIERREZ MOSUNNY   77  64  65 CALM      29.94F
VILLAHERMOSA   CLOUDY    75  72  88 CALM      29.89F FOG

CENTRAL AMERICA

CITY           SKY/WX    TMP DP  RH WIND       PRES   REMARKS
MANAGUA        MOSUNNY   84  68  58 E9        29.86F

CARIBBEAN

CITY           SKY/WX    TMP DP  RH WIND       PRES   REMARKS
ARUBA          MOSUNNY   88  73  62 E24       29.89F HX  96
CURACAO        MOSUNNY   88  73  62 E18       29.94F HX  96
KINGSTON       MOSUNNY   86  75  70 SE23      29.94F HX  95
NASSAU         MOSUNNY   81  70  69 SE12      30.05
SAN JUAN       MOSUNNY   84  73  70 NE15      30.01F HX  91

$$




USA.gov is the U.S. government's official web portal to all federal, state and local government web resources and services.